Preview of NWS' New Version of Forecast
This preview is not operational and should not be used for support decisions.

Regional Weather Roundup (RWR)

Issued by National Weather Service (NWS)

                            
000
ASUS43 KMKX 170410
RWRWI 

WISCONSIN REGIONAL WEATHER ROUNDUP
NATIONAL WEATHER SERVICE MILWAUKEE/SULLIVAN WI
1000 PM CST SAT FEB 16 2019

NOTE: "FAIR" INDICATES FEW OR NO CLOUDS BELOW 12,000 FEET WITH NO
SIGNIFICANT WEATHER AND/OR OBSTRUCTIONS TO VISIBILITY.

WIZ001-002-006>008-014>016-023>028-170500-
NORTHWEST WISCONSIN
  
CITY           SKY/WX    TMP DP  RH WIND       PRES   REMARKS
SUPERIOR ARPT  FAIR      16  11  80 NE6       30.12S WCI   8          
ASHLAND        FAIR      14  10  84 NE8       30.11F WCI   3          
HAYWARD        CLOUDY    16   9  74 NE5       30.04S WCI   9          
SIREN          CLOUDY    19  11  71 NE5       30.05R WCI  12          
CUMBERLAND     CLOUDY    14   7  73 E5        30.03R WCI   6          
RICE LAKE      CLOUDY     9   5  85 NE3       30.04S                  
CHETEK         CLOUDY    10   7  89 CALM      30.04S                  
LADYSMITH      FAIR      11   6  79 E5        30.05R WCI   3          
EAU CLAIRE     FAIR      15   6  67 E8        30.03S WCI   4          
MENOMONIE      CLOUDY     6   0  76 CALM      30.03F                  
NEW RICHMOND   CLOUDY    18   8  65 E9        30.02S WCI   7          
OSCEOLA        CLOUDY    19  11  70 E5        30.06S WCI  13          
$$
 
WIZ003>005-009-010-017-018-170500-
NORTH CENTRAL WISCONSIN
  
CITY           SKY/WX    TMP DP  RH WIND       PRES   REMARKS
MANITOWISH WTR NOT AVBL                                               
ARBOR VITAE    FAIR      18  13  82 E5        30.02F WCI  11          
WOODRUFF       FAIR      18  13  82 E5        30.02F WCI  11          
RHINELANDER    FAIR      12   6  77 E5        30.03F WCI   4          
EAGLE RIVER    FAIR      14  10  84 E3        30.03F                  
LAND O LAKES   FAIR      14  10  84 CALM      30.06F                  
PHILLIPS       CLOUDY    18  12  77 E5        30.02R WCI  11          
TOMAHAWK       CLOUDY    15   9  77 CALM      30.05R                  
MEDFORD        FAIR      13   6  73 E3        30.03R                  
MERRILL        FAIR      15   8  71 SE6       30.07R WCI   7          
$$
 
WIZ029-030-035-036-043>047-170500-
CENTRAL WISCONSIN
  
CITY           SKY/WX    TMP DP  RH WIND       PRES   REMARKS
WAUSAU         MOCLDY    14   6  70 E3        30.05R                  
MOSINEE        MOCLDY    14   9  79 E6        30.07R WCI   5          
MARSHFIELD     CLOUDY    14   7  73 E8        30.03R WCI   3          
STEVENS POINT  FAIR      11   6  79 NE3       30.08R                  
WAUPACA        FAIR      14   8  76 CALM      30.09R                  
WAUTOMA        MOCLDY    12   8  84 E3        30.09R                  
WISC RAPIDS    CLOUDY    15   5  64 E7        30.07R WCI   5          
CAMP DOUGLAS   CLOUDY    15  11  85 E7        30.04R WCI   5          
$$
 
WIZ011>013-019>022-031-037>040-048>050-170500-
NORTHEAST WISCONSIN
  
CITY           SKY/WX    TMP DP  RH WIND       PRES   REMARKS
ANTIGO         FAIR       9   5  83 E8        30.05S WCI  -3          
SHAWANO        FAIR       6  -1  73 CALM      30.12R                  
OCONTO         CLOUDY     2   0  88 NE3       30.13F                  
STURGEON BAY   CLOUDY    16  10  77 N7        30.13R WCI   6          
GREEN BAY      CLOUDY    13   7  77 N9        30.10F WCI   1          
MANITOWOC      CLOUDY    19  14  81 N5        30.09F WCI  12          
APPLETON       MOCLDY    16   7  67 NE3       30.06F                  
CLINTONVILLE   FAIR      14   7  73 E5        30.10R WCI   6          
OSHKOSH        CLOUDY    18  11  74 NE8       30.08R WCI   8          
$$
 
WIZ032>034-041-042-053>061-170500-
SOUTHWEST WISCONSIN
  
CITY           SKY/WX    TMP DP  RH WIND       PRES   REMARKS
LA CROSSE      CLOUDY    20  10  65 E5        30.02F WCI  13          
SPARTA         CLOUDY    17  12  80 E7        30.05S WCI   7          
VIROQUA        CLOUDY    18  14  85 E9        29.97S WCI   7          
BOSCOBEL       CLOUDY    22  13  68 NE8       29.99F WCI  12          
PRAIRIE DU CHI CLOUDY    22  13  68 E7        29.96F WCI  14          
PLATTEVILLE    CLOUDY    24  20  85 E18       29.94F WCI  10          
$$

WIZ056-057-062-063-064-067-068-170500-
SOUTH CENTRAL WISCONSIN
  
CITY           SKY/WX    TMP DP  RH WIND       PRES   REMARKS
REEDSBURG      CLOUDY    17  12  79 E9        30.03S WCI   6          
BARABOO/DELLS  CLOUDY    18  12  79 E9        30.02F WCI   6          
LONE ROCK      CLOUDY    20  15  81 E9        30.02S WCI   9          
MINERAL POINT  CLOUDY    23  19  86 E12G18    29.94F WCI  12          
MADISON        CLOUDY    22  16  78 E10       30.03R WCI  11          
MIDDLETON      CLOUDY    24  18  79 E8        30.02S WCI  14          
WATERTOWN      CLOUDY    22  18  84 NE6       30.03S WCI  15          
MONROE         CLOUDY    24  18  77 MISG      29.96F                  
JANESVILLE     CLOUDY    27  21  80 E13       30.01F WCI  16          
$$
 
WIZ051-052-058>065-066-070>072-170500-
SOUTHEAST WISCONSIN
  
CITY           SKY/WX    TMP DP  RH WIND       PRES   REMARKS
MILWAUKEE      CLOUDY    28  17  63 E13       30.04F WCI  17          
WAUKESHA       CLOUDY    23  18  80 CALM      30.05R                  
MILWAUKEE/TIMM CLOUDY    28  18  64 E3        30.06R                  
RACINE         CLOUDY    28  18  66 E10G20    30.06S WCI  19          
KENOSHA        CLOUDY    27  19  72 E14       30.03F WCI  16          
FOND DU LAC    CLOUDY    19  13  77 NE8       30.07S WCI   9          
SHEBOYGAN      CLOUDY    21  15  78 N7        30.06F WCI  12          
WEST BEND      CLOUDY    21  18  86 NE5       30.04F WCI  15          
JUNEAU         CLOUDY    20  15  81 NE6       30.05R WCI  13          
$$

LSZ147-162-170500-
LAKE SUPERIOR
  
STATION/POSITION TIME  TEMP    WIND        PRES    WAVE
                       AIR SEA DIR/SP/G            HT/PER
                 (UTC) (F)     (DEG/KT/KT) (MB)    (FT/S)
DEVILS ISLAND    0400   18      70/ 13/ 15 1021.9F
SAXON HARBOR     0340   11        CALM     1019.6F
$$
 
LMZ867-665-643>646-170500-
LAKE MICHIGAN
  
STATION/POSITION TIME  TEMP    WIND        PRES    WAVE
                       AIR SEA DIR/SP/G            HT/PER
                 (UTC) (F)     (DEG/KT/KT) (MB)    (FT/S)
NORTHPORT PIER   0402   16      10/  5/  7 1020.7
KEWAUNEE LAKESHO 0336   25      60/ 12/ 17 1018.6F
SHEBOYGAN LAKESH 0400   27      60/ 15/ 18 1019.1F
PORT WASHINGTON  0340   29      80/ 12/ 16 1019.0F
MILWAUKEE LAKESH 0350   28      80/ 17/ 19   N/A
KENOSHA   LAKESH 0400   27      90/ 16/ 19 1017.6
$$

TC  - TEMPERATURE IN CELSIUS
VSB - VISIBILITY IN STATUTE MILES
WCI - WIND CHILL INDEX
HX  - HEAT INDEX